Overview Statistics Trail Chart Weather Telemetry Raw packets
 

This is the latest recevied weather packets stored in our database for station/object K4XP. If no packets are shown the sender has not sent any weather packets the latest 10 day(s).

<< 99 100 101 102 >>
Time Temp. Humidity Pressure Rain* Wind** Luminosity Snow
1787847630 27.78° C 76% 1016.9 hPa 0 mm - - -
1787847322 27.78° C 76% 1016.8 hPa 0 mm - - -
1787847040 27.22° C 77% 1016.8 hPa 0 mm - - -
1787846739 27.22° C 77% 1016.8 hPa 0 mm - - -
1787846439 26.67° C 78% 1016.8 hPa 0 mm - - -
1787846134 27.22° C 77% 1016.8 hPa 0 mm - - -
1787845826 27.22° C 80% 1016.8 hPa 0 mm - - -
1787845527 26.67° C 81% 1016.8 hPa 0 mm - - -
1787845225 26.11° C 81% 1017 hPa 0 mm - - -
1787844946 26.11° C 80% 1017 hPa 0 mm - - -
1787844640 26.11° C 80% 1017 hPa 0 mm - - -
1787844317 26.11° C 83% 1017.1 hPa 0 mm - - -
1787844046 26.11° C 82% 1016.9 hPa 0 mm - - -
1787843739 25.56° C 82% 1017 hPa 0 mm - - -
1787843441 25.56° C 82% 1017 hPa 0 mm - - -
1787843135 25.56° C 82% 1016.9 hPa 0 mm - - -
1787842813 25.56° C 83% 1016.7 hPa 0 mm - - -
1787842539 25° C 84% 1016.6 hPa 0 mm - - -
1787842235 24.44° C 85% 1016.7 hPa 0 mm - - -
1787841943 24.44° C 85% 1016.6 hPa 0 mm - - -
1787841624 24.44° C 85% 1016.7 hPa 0 mm - - -
1787841325 24.44° C 85% 1016.7 hPa 0 mm - - -

* Rain latest hour (hover to see other rain measurements)
** Current wind speed in m/s (hover to see current wind gust speed)